Theta_e
352 363 367 366 365 364 364 363 363 362 362 362 362 362 362 362 362 362 363 362 362 362 360 358 356 354 351 349 351 354 356 356 356 354 354 354 354 354 356 356 356 350 352
355 362 366 365 365 364 364 363 362 361 361 362 362 362 362 362 362 362 362 361 361 359 357 355 353 349 346 343 344 347 350 352 355 355 353 353 353 353 355 354 353 350 352
354 361 364 365 365 364 363 363 361 360 361 361 361 361 362 362 362 361 361 361 360 357 354 351 348 344 341 338 337 339 340 344 347 351 352 348 348 352 352 352 352 351 350
354 357 361 365 364 364 363 362 361 361 361 361 361 361 362 362 362 361 361 360 357 354 351 347 344 341 339 337 336 337 340 340 343 345 339 345 343 349 350 351 350 349 350
351 353 361 365 364 364 363 362 361 360 361 361 361 361 362 362 361 360 360 359 356 352 348 344 343 343 341 339 341 342 341 343 346 341 329 328 336 349 352 353 350 349 348
349 353 362 364 364 363 363 362 361 361 361 361 362 361 362 362 360 359 360 358 356 352 347 345 346 345 344 342 344 344 344 346 346 335 333 338 335 353 354 354 352 352 351
346 354 358 363 364 364 364 363 362 361 361 361 362 362 362 361 360 359 359 358 356 353 350 347 346 346 346 346 345 345 346 344 337 334 333 336 340 351 354 353 350 351 351
344 354 356 362 363 363 363 362 362 361 361 361 362 361 361 360 359 358 358 357 355 353 351 349 348 347 347 347 346 346 347 345 341 338 336 339 345 351 353 352 351 351 351
347 352 353 356 361 363 362 361 361 361 361 361 360 360 360 359 358 357 356 356 355 353 351 350 349 347 346 346 347 347 347 345 338 338 337 334 350 353 355 353 352 352 352
350 351 350 354 357 357 359 361 361 361 361 360 360 360 359 358 357 356 353 354 354 353 352 351 350 349 348 347 347 348 347 345 337 335 333 334 349 352 355 354 352 353 352
351 349 348 350 352 352 354 360 360 362 361 360 360 359 356 350 351 352 352 352 353 353 352 351 351 350 349 349 348 348 346 337 336 333 331 341 351 354 353 353 354 352 352
347 347 346 346 348 348 355 354 353 357 355 354 354 353 350 346 346 349 350 352 353 353 352 352 351 351 350 341 337 347 340 337 336 333 331 345 352 355 354 353 353 353 353
345 346 344 346 346 345 346 351 351 352 351 350 350 349 345 344 343 345 341 344 345 350 345 347 346 344 341 337 333 329 337 336 333 332 334 351 351 354 353 353 353 353 353
331 342 342 344 345 343 344 348 346 347 346 346 345 347 344 339 336 339 340 340 342 342 341 337 339 337 336 334 331 329 333 333 333 334 336 352 350 352 352 352 352 353 353
323 334 337 345 343 342 344 347 345 343 344 343 344 345 346 339 340 338 340 340 341 341 341 338 336 335 335 335 333 334 332 333 332 333 336 351 349 350 352 352 350 351 352
326 329 337 347 345 344 350 348 346 339 343 344 344 345 345 345 339 343 340 344 343 343 343 340 337 336 337 336 335 336 336 335 335 336 336 342 348 348 350 353 353 351 351
324 328 331 341 349 346 346 348 349 350 342 342 345 345 347 345 346 340 345 342 342 342 342 340 339 340 338 338 335 335 337 337 336 337 337 337 343 348 348 349 352 353 353
324 324 328 339 347 346 348 349 348 348 347 345 345 347 349 347 346 349 344 344 342 341 340 338 335 332 332 333 331 332 333 335 337 338 338 339 338 340 346 348 349 351 353
322 322 325 330 336 346 346 348 346 346 346 346 344 347 349 350 351 347 347 344 343 341 340 339 335 333 331 333 334 333 334 337 340 341 339 340 339 340 339 344 348 348 349
323 324 324 329 333 344 345 345 344 342 343 342 341 341 349 351 350 348 347 344 343 342 339 335 332 333 333 332 336 335 334 340 340 340 340 343 342 342 341 339 341 343 346
321 321 324 327 327 336 341 340 340 337 339 341 340 339 340 347 350 348 344 344 345 341 336 334 332 330 329 332 329 332 338 340 341 343 343 341 342 342 341 339 340 341 341
320 321 319 320 329 328 342 341 341 341 341 339 340 340 340 342 344 349 347 344 342 338 337 335 333 331 331 334 332 333 330 329 334 343 341 342 342 342 340 340 341 339 339
316 317 318 321 322 325 329 335 340 342 345 342 339 338 339 340 340 342 344 344 341 340 337 336 337 335 331 332 336 333 325 321 331 336 340 339 339 340 340 339 342 342 342
316 317 316 319 320 324 323 326 325 331 332 336 335 340 339 339 337 338 342 343 341 341 339 337 337 337 333 329 336 342 340 336 326 323 336 339 339 340 340 339 339 341 342
312 314 319 319 320 322 323 325 325 327 329 329 331 332 343 343 340 339 339 341 342 340 340 339 338 339 337 335 337 332 327 324 324 324 324 330 335 338 339 338 340 338 339
309 310 313 317 318 322 322 322 323 322 325 325 325 327 331 333 339 342 341 342 340 341 341 337 338 338 337 338 341 332 324 329 331 333 332 331 328 331 336 339 338 337 336
Wind_Speed
6 11 17 19 21 19 17 16 16 15 15 15 15 15 16 16 17 17 16 15 14 13 12 12 10 9 8 8 9 9 8 7 8 9 9 10 10 9 7 9 8 8 9
18 12 16 18 21 21 18 16 16 16 15 15 15 14 15 15 16 15 14 13 12 12 11 10 9 9 8 7 7 7 6 4 4 5 6 6 8 9 8 11 10 7 8
17 12 12 16 21 21 20 15 15 15 15 16 15 15 15 14 15 13 12 12 11 11 10 9 8 7 7 6 5 4 2 2 2 3 1 2 0 7 7 8 8 7 7
18 12 11 16 19 21 20 17 15 16 16 15 14 14 14 14 13 12 11 11 11 10 9 8 7 6 5 5 4 2 2 4 4 5 3 3 3 5 6 7 6 5 4
16 13 13 16 18 20 21 18 16 15 16 15 15 14 14 14 13 11 11 10 10 9 8 6 6 5 4 4 2 2 4 6 7 6 5 5 6 7 6 6 5 4 3
14 14 17 17 16 20 20 21 16 15 15 15 15 14 13 13 12 10 10 9 8 8 7 6 6 4 3 3 1 2 5 7 9 6 6 4 6 11 8 6 7 6 5
16 14 15 17 16 19 19 20 18 15 13 13 14 13 13 12 12 10 9 10 9 8 7 6 4 3 2 1 1 3 5 7 5 5 6 5 5 12 11 9 7 5 4
20 14 16 17 15 15 19 20 19 17 14 13 13 13 13 11 11 10 8 9 9 8 7 6 5 4 2 2 3 4 6 8 7 5 5 3 8 13 12 10 9 6 5
17 16 15 13 13 14 17 18 19 18 16 15 14 13 13 12 11 9 8 7 7 7 6 6 5 5 5 5 6 7 7 10 6 4 8 2 11 13 13 11 10 7 6
14 15 15 15 11 8 9 17 19 19 17 16 14 13 12 11 11 11 9 7 7 7 7 7 7 7 8 9 9 9 10 12 6 6 5 3 13 14 13 12 11 10 7
11 11 14 13 12 9 6 11 15 19 18 17 14 14 11 5 6 7 7 8 8 8 8 8 8 9 10 11 11 11 13 4 6 5 4 9 15 15 15 14 13 12 10
11 11 14 15 13 11 9 7 8 10 8 8 9 9 6 6 6 8 9 11 12 11 10 9 10 12 12 5 4 11 6 6 5 7 5 12 17 15 14 14 13 12 12
13 9 8 16 16 14 9 7 5 5 5 5 9 8 6 6 5 5 4 4 4 9 4 6 8 7 8 5 4 5 5 6 5 5 7 11 15 14 12 12 12 12 12
12 6 10 9 16 15 9 8 7 6 6 6 6 9 6 4 5 5 4 6 5 4 6 6 6 7 7 6 5 7 6 6 5 6 5 14 12 12 12 13 14 13 12
6 8 7 8 10 12 11 10 9 8 8 8 8 8 6 5 5 5 5 5 6 5 6 7 7 6 6 7 6 8 7 8 7 4 3 13 15 14 15 14 15 14 13
5 9 5 12 9 9 7 9 6 5 9 10 9 9 9 7 6 5 5 6 5 7 7 6 6 7 7 5 7 9 9 6 6 6 4 5 14 14 13 14 15 15 15
3 5 9 7 9 10 9 9 8 6 6 8 9 12 12 9 8 8 5 5 6 5 7 5 5 4 3 4 5 6 5 6 6 7 6 5 6 14 15 15 16 16 16
8 6 1 5 8 7 7 4 4 6 7 8 7 10 14 12 9 6 5 5 5 5 3 4 4 4 3 2 3 4 5 5 7 7 6 6 5 5 11 16 15 16 15
8 8 4 1 5 10 8 6 5 6 5 5 6 5 12 13 11 9 5 5 5 5 4 4 3 3 2 2 3 5 5 5 8 7 8 7 7 6 4 10 16 16 16
9 7 5 3 5 6 3 5 5 1 4 4 6 5 9 9 10 7 4 5 6 4 4 2 3 2 3 2 4 5 4 5 5 7 8 6 6 8 6 6 6 8 18
9 8 5 3 3 3 2 3 3 4 3 3 5 7 8 6 7 10 6 5 5 6 6 6 4 4 3 3 1 3 7 7 7 8 8 6 6 6 7 6 4 4 6
8 8 6 3 2 2 3 3 2 5 2 3 3 3 6 8 7 7 7 7 7 4 6 6 5 3 3 4 4 1 5 3 2 9 6 5 7 5 6 7 7 7 6
9 9 6 4 1 2 3 3 3 3 3 3 4 3 5 7 8 7 7 7 7 7 9 9 9 9 8 0 6 4 1 4 3 8 9 5 6 4 5 6 7 8 7
8 8 8 7 4 3 5 4 5 5 6 5 3 3 4 7 9 8 10 10 10 8 11 12 11 9 6 5 3 4 5 5 5 7 5 5 6 6 6 5 6 7 8
9 8 8 8 6 5 5 5 5 3 3 3 3 4 6 8 7 10 7 7 10 10 13 12 4 9 6 5 5 4 6 1 5 8 13 6 4 5 6 6 6 4 6
8 8 8 7 4 6 6 6 7 6 5 4 2 3 3 5 7 11 12 11 10 10 12 9 6 8 9 9 9 8 4 4 2 4 10 8 5 5 6 5 5 5 5
Wind_Direction
135 149 152 142 133 130 130 128 126 123 116 112 105 102 99 98 100 102 105 107 110 111 113 106 99 89 80 69 67 63 65 76 92 97 101 98 93 83 66 33 120 98 96
136 148 153 146 135 131 131 134 132 128 124 119 116 117 110 113 110 109 111 113 116 117 117 115 113 106 97 89 75 67 64 63 68 97 109 117 118 101 81 73 90 96 99
132 142 151 151 138 134 134 138 136 133 130 128 127 127 122 120 117 119 120 121 119 120 121 122 120 110 104 95 84 71 44 10 18 351 157 100 34 116 105 97 96 102 98
136 144 149 152 144 138 137 139 141 139 136 133 134 132 130 127 126 128 126 125 128 129 125 122 119 113 108 107 104 88 347 333 329 323 302 269 237 132 120 119 116 115 110
139 149 153 152 150 144 141 140 143 143 142 141 140 138 135 134 134 137 133 132 132 128 121 117 110 108 116 112 81 29 341 328 328 332 293 282 172 148 139 137 133 140 138
149 149 151 150 157 147 146 143 146 146 147 146 143 141 140 140 136 142 140 136 134 133 128 130 126 136 140 118 74 347 328 327 325 311 303 300 173 152 153 142 103 142 122
158 149 150 151 157 150 148 144 144 144 143 142 140 141 139 142 141 144 148 143 145 145 140 144 149 159 161 152 278 314 314 318 310 300 309 274 171 156 160 159 138 147 152
155 153 150 150 154 156 149 145 143 142 142 142 139 141 142 145 144 150 157 152 154 157 157 161 169 185 208 251 282 288 294 298 304 301 287 291 204 166 167 162 152 166 179
152 147 148 145 150 155 149 146 142 141 142 143 144 145 145 149 150 154 163 165 166 165 167 177 191 204 218 232 249 262 270 279 278 271 287 225 208 177 173 171 164 179 195
147 144 148 141 142 138 151 145 144 144 146 146 145 146 148 153 158 159 175 182 180 177 183 195 204 213 229 232 234 245 253 263 273 271 264 226 198 191 180 177 176 177 196
138 145 145 142 140 135 134 149 144 147 148 148 147 147 148 149 158 164 182 195 193 197 200 207 213 223 227 235 238 243 253 256 261 267 259 254 199 195 184 185 184 183 192
144 162 154 149 148 147 159 152 144 153 149 151 151 156 159 169 174 178 191 208 201 203 205 208 221 225 229 215 232 250 242 239 245 258 260 255 197 197 186 188 193 193 193
154 151 186 156 151 156 157 154 162 156 151 160 157 164 169 182 184 184 187 196 196 208 207 211 229 228 225 209 208 226 233 234 247 252 265 220 197 201 192 195 198 199 201
95 130 157 179 159 164 140 160 168 167 164 169 172 169 174 177 195 186 178 187 189 200 210 212 229 234 236 232 220 225 213 223 226 248 258 192 191 200 201 204 206 203 204
63 99 107 166 177 170 148 159 171 176 178 171 176 177 172 178 189 190 184 186 193 190 212 221 222 229 233 224 226 245 243 227 232 235 192 188 194 203 208 209 211 207 206
100 105 99 155 184 168 131 145 153 175 184 172 173 184 179 179 190 200 195 190 193 201 217 226 214 224 230 218 214 240 239 249 253 253 251 209 205 206 211 218 217 214 212
133 107 134 131 154 179 170 154 153 165 176 184 180 178 183 187 191 199 202 204 207 203 208 207 238 240 231 219 241 243 254 258 250 240 236 232 215 216 212 219 220 215 214
144 130 78 132 167 173 153 141 153 156 158 182 184 179 183 191 192 183 193 209 208 238 238 218 209 232 221 215 243 268 269 273 259 246 234 231 220 208 220 224 220 221 220
145 130 103 349 256 182 181 155 161 177 172 163 152 166 187 189 189 196 198 188 203 223 233 222 237 197 260 293 262 252 258 257 256 250 243 230 224 219 203 218 218 221 212
116 106 92 47 329 290 172 135 131 335 245 216 146 174 153 199 193 191 190 190 204 216 225 193 164 218 206 189 256 266 272 254 230 253 250 243 224 224 214 205 208 221 212
114 114 106 93 319 324 278 173 144 162 246 264 215 156 153 181 185 201 197 189 197 208 191 188 184 210 284 175 323 302 274 239 250 253 249 229 228 219 213 215 189 205 211
139 133 131 97 18 304 302 263 222 147 173 265 291 195 197 155 164 192 193 210 200 230 216 198 178 177 234 195 185 133 291 303 297 277 253 235 231 219 224 219 195 194 202
146 149 155 165 205 286 309 333 325 98 128 169 223 219 234 204 154 186 198 198 213 215 233 210 205 181 225 190 232 166 240 234 21 355 300 260 239 227 235 224 204 202 200
162 155 148 148 170 258 285 250 219 235 178 179 193 202 214 205 207 188 203 204 213 219 237 230 220 197 167 159 215 189 211 193 153 269 253 281 246 237 230 217 206 209 209
137 141 154 160 173 222 241 256 263 240 210 183 161 272 198 201 193 198 198 229 231 224 233 234 228 209 187 147 198 209 232 208 144 193 275 263 294 253 225 212 211 210 203
138 143 135 153 194 206 214 240 245 268 267 189 187 111 284 279 213 183 191 198 213 230 239 240 212 196 195 199 216 222 204 199 184 217 233 248 222 266 238 217 197 204 200